FW7044 Weather Reports


Display with metric or nautical units.
time (UTC)temp
F
wind
direction
speed
MPH
gust
MPH
rain 1hr
in
rain 24hr
in
rain mn
in
humidity
%
barometer
mb
20260510123111 78 294 0.0 1.0 0.00 0.00 0.00 99 1016.9
20260510122607 78 160 2.0 3.0 0.00 0.00 0.00 99 1016.4
20260510122103 78 281 0.0 1.0 0.00 0.00 0.00 99 1016.4
20260510121600 78 151 3.0 3.0 0.00 0.00 0.00 99 1016.6
20260510121057 78 259 1.0 1.0 0.00 0.00 0.00 99 1016.4
20260510120555 78 189 2.0 2.0 0.00 0.00 0.00 99 1016.1
20260510120050 77 286 0.0 1.0 0.00 0.00 0.00 99 1016.3
20260510115547 77 211 1.0 1.0 0.00 0.00 0.00 99 1015.9
20260510115044 77 191 1.0 1.0 0.00 0.00 0.00 99 1016.0
20260510114540 77 120 1.0 2.0 0.00 0.00 0.00 99 1015.8
20260510114036 77 230 1.0 1.0 0.00 0.00 0.00 99 1015.8
20260510113531 77 292 0.0 0.0 0.00 0.00 0.00 99 1016.0
20260510113029 76 267 1.0 1.0 0.00 0.00 0.00 99 1015.7
20260510112526 76 285 0.0 0.0 0.00 0.00 0.00 99 1015.7
20260510112022 76 284 0.0 0.0 0.00 0.00 0.00 99 1015.7
20260510111519 76 341 0.0 0.0 0.00 0.00 0.00 99 1015.6
20260510111015 76 327 0.0 0.0 0.00 0.00 0.00 99 1015.8
20260510110511 76 275 0.0 1.0 0.00 0.00 0.00 99 1015.7
20260510110008 76 275 0.0 0.0 0.00 0.00 0.00 99 1015.8
20260510105502 76 275 0.0 0.0 0.00 0.00 0.00 99 1015.7
20260510104958 76 275 0.0 0.0 0.00 0.00 0.00 99 1015.6
20260510104455 76 276 0.0 0.0 0.00 0.00 0.00 99 1015.4
20260510103951 76 276 0.0 0.0 0.00 0.00 0.00 99 1015.5
20260510103449 76 276 0.0 0.0 0.00 0.00 0.00 99 1015.4
20260510102944 76 276 0.0 0.0 0.00 0.00 0.00 99 1015.1
20260510102440 76 273 1.0 1.0 0.00 0.00 0.00 99 1015.2
20260510101937 76 277 0.0 0.0 0.00 0.00 0.00 99 1015.1
20260510101435 76 246 1.0 1.0 0.00 0.00 0.00 99 1015.1
20260510100933 76 285 0.0 0.0 0.00 0.00 0.00 99 1014.9
20260510100429 76 287 0.0 0.0 0.00 0.00 0.00 99 1015.1
20260510095925 76 294 0.0 0.0 0.00 0.00 0.00 99 1014.9
20260510095421 76 260 1.0 1.0 0.00 0.00 0.00 99 1015.1
20260510094920 76 301 0.0 0.0 0.00 0.00 0.00 99 1014.9
20260510094414 76 300 0.0 0.0 0.00 0.00 0.00 99 1014.9
20260510093911 76 301 0.0 0.0 0.00 0.00 0.00 99 1014.9
20260510093407 76 308 0.0 1.0 0.00 0.00 0.00 99 1014.8
20260510092903 76 301 0.0 1.0 0.00 0.00 0.00 99 1015.0
20260510092401 76 228 1.0 1.0 0.00 0.00 0.00 99 1014.8
20260510091855 76 270 1.0 1.0 0.00 0.00 0.00 99 1014.6
20260510091353 75 313 0.0 0.0 0.00 0.00 0.00 99 1014.7
20260510090849 75 298 0.0 1.0 0.00 0.00 0.00 99 1014.6
20260510090345 75 222 1.0 2.0 0.00 0.00 0.00 99 1014.7
20260510085841 75 244 1.0 2.0 0.00 0.00 0.00 99 1014.6
20260510085336 75 269 0.0 0.0 0.00 0.00 0.00 99 1014.6
20260510084832 75 269 0.0 0.0 0.00 0.00 0.00 99 1014.5
20260510084329 75 269 0.0 0.0 0.00 0.00 0.00 99 1014.3
20260510083826 75 269 0.0 0.0 0.00 0.00 0.00 99 1014.5
20260510083323 75 269 0.0 0.0 0.00 0.00 0.00 99 1014.4
20260510082818 75 269 0.0 0.0 0.00 0.00 0.00 99 1014.5
20260510082316 75 269 0.0 0.0 0.00 0.00 0.00 99 1014.3
20260510081814 75 269 0.0 0.0 0.00 0.00 0.00 99 1014.4
20260510081310 75 269 0.0 0.0 0.00 0.00 0.00 99 1014.4
20260510080806 75 269 0.0 0.0 0.00 0.00 0.00 99 1014.6
20260510080301 75 269 0.0 0.0 0.00 0.00 0.00 99 1014.4
20260510075759 75 269 0.0 0.0 0.00 0.00 0.00 99 1014.6
20260510075256 75 269 0.0 0.0 0.00 0.00 0.00 99 1014.5
20260510074753 75 269 0.0 0.0 0.00 0.00 0.00 99 1014.2
20260510074249 75 269 0.0 0.0 0.00 0.00 0.00 99 1014.4
20260510073745 75 269 0.0 0.0 0.00 0.00 0.00 99 1014.4
20260510073242 75 269 0.0 0.0 0.00 0.00 0.00 99 1014.7
20260510072737 75 269 0.0 0.0 0.00 0.00 0.00 99 1014.5
20260510072234 75 269 0.0 0.0 0.00 0.00 0.00 99 1014.6
20260510071731 75 269 0.0 0.0 0.00 0.00 0.00 99 1014.7
20260510071227 75 269 0.0 0.0 0.00 0.00 0.00 99 1014.7
20260510070726 75 269 0.0 0.0 0.00 0.00 0.00 99 1014.8
20260510070223 76 269 0.0 0.0 0.00 0.00 0.00 99 1014.7
20260510065718 76 269 0.0 0.0 0.00 0.00 0.00 99 1014.9
20260510065214 75 269 0.0 0.0 0.00 0.00 0.00 99 1014.8
20260510064711 76 269 0.0 0.0 0.00 0.00 0.00 99 1014.8
20260510064209 76 269 0.0 0.0 0.00 0.00 0.00 99 1014.9
20260510063705 76 269 0.0 0.0 0.00 0.00 0.00 99 1014.9
20260510063201 76 269 0.0 0.0 0.00 0.00 0.00 99 1015.0
20260510062657 76 269 0.0 0.0 0.00 0.00 0.00 99 1014.7
20260510062153 76 269 0.0 0.0 0.00 0.00 0.00 99 1014.8
20260510061648 76 269 0.0 0.0 0.00 0.00 0.00 99 1015.0
20260510061147 76 269 0.0 0.0 0.00 0.00 0.00 99 1015.0
20260510060643 76 269 0.0 0.0 0.00 0.00 0.00 99 1015.0
20260510060139 76 269 0.0 0.0 0.00 0.00 0.00 99 1014.7
20260510055636 76 269 0.0 0.0 0.00 0.00 0.00 99 1015.0
20260510055134 76 269 0.0 0.0 0.00 0.00 0.00 99 1015.2
20260510054630 76 269 0.0 0.0 0.00 0.00 0.00 99 1015.3
20260510054125 76 269 0.0 0.0 0.00 0.00 0.00 99 1015.4
20260510053624 76 269 0.0 0.0 0.00 0.00 0.00 99 1015.3
20260510053121 76 269 0.0 0.0 0.00 0.00 0.00 99 1015.3
20260510052617 76 269 0.0 0.0 0.00 0.00 0.00 99 1015.5
20260510052114 76 269 0.0 0.0 0.00 0.00 0.00 99 1015.3
20260510051609 76 269 0.0 0.0 0.00 0.00 0.00 99 1015.4
20260510051106 76 269 0.0 0.0 0.00 0.00 0.00 99 1015.3
20260510050604 76 269 0.0 0.0 0.00 0.00 0.00 99 1015.5
20260510050101 76 269 0.0 0.0 0.00 0.00 0.00 99 1015.4
20260510045558 76 269 0.0 0.0 0.00 0.00 0.00 99 1015.2
20260510045054 76 269 0.0 0.0 0.00 0.00 0.00 99 1015.5
20260510044550 76 269 0.0 0.0 0.00 0.00 0.00 99 1015.4
20260510044048 76 269 0.0 0.0 0.00 0.00 0.00 99 1015.7
20260510043543 76 269 0.0 0.0 0.00 0.00 0.00 99 1015.4
20260510043039 76 269 0.0 0.0 0.00 0.00 0.00 99 1015.6
20260510042538 76 269 0.0 0.0 0.00 0.00 0.00 99 1015.6
20260510042034 77 268 0.0 0.0 0.00 0.00 0.00 99 1015.7
20260510041531 77 272 0.0 0.0 0.00 0.00 0.00 99 1015.5
20260510041028 77 272 0.0 0.0 0.00 0.00 0.00 99 1015.6
20260510040519 77 272 0.0 0.0 0.00 0.00 0.00 99 1015.6
20260510040015 77 272 0.0 0.0 0.00 0.18 0.18 99 1015.7
20260510035512 77 272 0.0 0.0 0.00 0.18 0.18 99 1015.5
20260510035011 77 272 0.0 0.0 0.00 0.18 0.18 99 1015.6
20260510034511 77 271 0.0 0.0 0.00 0.18 0.18 99 1015.6
20260510034006 76 271 0.0 0.0 0.00 0.18 0.18 99 1015.4
20260510033502 77 271 0.0 0.0 0.00 0.18 0.18 99 1015.6
20260510033000 77 272 0.0 0.0 0.00 0.18 0.18 99 1015.5
20260510032457 77 272 0.0 0.0 0.00 0.18 0.18 99 1015.5
20260510031957 77 272 0.0 0.0 0.00 0.18 0.18 99 1015.3
20260510031452 77 272 0.0 0.0 0.00 0.18 0.18 99 1015.2
20260510030949 77 272 0.0 0.0 0.00 0.18 0.18 99 1015.3
20260510030444 77 272 0.0 0.0 0.00 0.18 0.18 99 1015.3
20260510025942 77 271 0.0 0.0 0.00 0.18 0.18 99 1015.1
20260510025439 77 242 1.0 1.0 0.00 0.18 0.18 99 1015.4
20260510024937 77 285 1.0 1.0 0.00 0.18 0.18 99 1015.3
20260510024433 77 303 0.0 0.0 0.00 0.18 0.18 99 1015.0
20260510023928 77 305 0.0 0.0 0.00 0.18 0.18 99 1014.7
20260510023425 77 305 0.0 0.0 0.00 0.18 0.18 99 1014.8
20260510022922 77 358 0.0 2.0 0.00 0.18 0.18 99 1014.7
20260510022421 77 308 0.0 1.0 0.00 0.18 0.18 99 1014.5
20260510021920 77 331 2.0 2.0 0.07 0.18 0.18 99 1014.6
20260510021419 77 344 1.0 1.0 0.07 0.18 0.18 99 1014.5
20260510020915 77 5 0.0 1.0 0.07 0.18 0.18 99 1014.4
20260510020410 77 16 2.0 2.0 0.00 0.17 0.17 99 1014.4
20260510015906 77 313 0.0 0.0 0.00 0.17 0.17 99 1014.7
20260510015402 77 263 1.0 1.0 0.00 0.17 0.17 99 1014.6
20260510014857 77 311 0.0 1.0 0.00 0.17 0.17 99 1014.6
20260510014355 77 321 1.0 2.0 0.00 0.17 0.17 99 1014.6
20260510013851 78 313 0.0 0.0 0.00 0.17 0.17 99 1014.5
20260510013346 78 11 1.0 2.0 0.00 0.17 0.17 99 1014.5
20260510012841 78 316 0.0 0.0 0.07 0.17 0.17 99 1014.4
20260510012341 78 328 1.0 2.0 0.12 0.17 0.17 98 1014.4
20260510011836 78 323 0.0 0.0 0.24 0.16 0.16 98 1014.3
20260510011332 79 340 1.0 1.0 0.31 0.15 0.15 97 1014.3
20260510010829 79 322 0.0 0.0 0.35 0.12 0.12 96 1014.6
20260510010326 80 328 1.0 1.0 0.54 0.11 0.11 96 1014.9
20260510005822 80 307 0.0 0.0 0.31 0.07 0.07 93 1014.5
20260510005319 80 229 0.0 1.0 0.07 0.02 0.02 91 1014.3
20260510004817 82 348 0.0 0.0 0.12 0.02 0.02 86 1014.1
20260510004314 85 247 2.0 3.0 0.05 0.01 0.01 78 1013.9
20260510003812 86 65 3.0 3.0 0.00 0.00 0.00 72 1014.0
20260510003308 86 290 1.0 1.0 0.00 0.00 0.00 70 1013.3
20260510002807 87 311 1.0 1.0 0.00 0.00 0.00 70 1013.0
20260510002307 87 336 4.0 6.0 0.00 0.00 0.00 69 1012.9
20260510001801 87 42 3.0 3.0 0.00 0.00 0.00 68 1012.8
20260510001259 88 2 2.0 3.0 0.00 0.00 0.00 67 1013.0
20260510000754 88 317 1.0 1.0 0.00 0.00 0.00 67 1012.7
20260510000253 88 17 2.0 5.0 0.00 0.00 0.00 68 1012.8
20260509235749 88 307 2.0 2.0 0.00 0.00 0.00 75 1013.0
20260509235246 89 128 2.0 2.0 0.00 0.00 0.00 75 1012.2
20260509234741 89 180 0.0 1.0 0.00 0.00 0.00 74 1012.1
20260509234238 89 121 3.0 3.0 0.00 0.00 0.00 74 1012.0
20260509233737 89 116 2.0 2.0 0.00 0.00 0.00 73 1012.0
20260509233234 90 145 4.0 5.0 0.00 0.00 0.00 72 1011.8
20260509232730 90 113 3.0 5.0 0.00 0.00 0.00 71 1011.8
20260509232227 91 106 3.0 5.0 0.00 0.00 0.00 71 1011.5
20260509231723 91 49 1.0 1.0 0.00 0.00 0.00 70 1011.6
20260509231221 92 232 2.0 2.0 0.00 0.00 0.00 69 1011.5
20260509230718 93 180 1.0 1.0 0.00 0.00 0.00 65 1011.6
20260509230215 94 119 3.0 5.0 0.00 0.00 0.00 61 1011.6
20260509225710 95 193 1.0 2.0 0.00 0.00 0.00 48 1011.6
20260509225206 96 233 1.0 1.0 0.00 0.00 0.00 47 1011.5
20260509224702 96 131 3.0 5.0 0.00 0.00 0.00 46 1011.4
20260509224159 96 274 0.0 0.0 0.00 0.00 0.00 46 1011.3
20260509223656 96 207 3.0 6.0 0.00 0.00 0.00 46 1011.5
20260509223148 97 264 3.0 5.0 0.00 0.00 0.00 45 1011.7
20260509222645 96 196 4.0 6.0 0.00 0.00 0.00 45 1011.4
20260509222139 96 285 4.0 6.0 0.00 0.00 0.00 45 1011.4
20260509221636 98 90 2.0 5.0 0.00 0.00 0.00 43 1011.4
20260509221132 98 259 1.0 2.0 0.00 0.00 0.00 42 1011.4
20260509220628 98 309 1.0 1.0 0.00 0.00 0.00 42 1011.2
20260509220124 98 194 4.0 5.0 0.00 0.00 0.00 41 1011.5
20260509215620 98 218 8.0 9.0 0.00 0.00 0.00 42 1011.8
20260509215112 98 231 2.0 2.0 0.00 0.00 0.00 41 1011.7
20260509214609 99 184 7.0 8.0 0.00 0.00 0.00 41 1011.5
20260509214105 99 220 2.0 3.0 0.00 0.00 0.00 40 1011.6
20260509213601 99 197 4.0 6.0 0.00 0.00 0.00 39 1011.6
20260509213058 100 173 6.0 8.0 0.00 0.00 0.00 40 1011.6
20260509212555 98 216 5.0 6.0 0.00 0.00 0.00 41 1011.6
20260509212052 100 223 7.0 10.0 0.00 0.00 0.00 41 1011.4
20260509211548 99 263 1.0 1.0 0.00 0.00 0.00 41 1011.6
20260509211044 99 217 3.0 5.0 0.00 0.00 0.00 40 1011.8
20260509210541 99 216 3.0 5.0 0.00 0.00 0.00 41 1011.6
20260509210037 100 196 4.0 7.0 0.00 0.00 0.00 39 1011.8
20260509205532 98 252 3.0 3.0 0.00 0.00 0.00 42 1011.6
20260509205028 98 191 4.0 5.0 0.00 0.00 0.00 42 1011.7
20260509204524 98 131 3.0 6.0 0.00 0.00 0.00 42 1011.6
20260509204021 99 173 4.0 6.0 0.00 0.00 0.00 42 1011.7
20260509203516 98 233 4.0 6.0 0.00 0.00 0.00 41 1011.7
20260509203015 98 298 0.0 1.0 0.00 0.00 0.00 42 1012.0
20260509202509 99 208 3.0 3.0 0.00 0.00 0.00 41 1012.1
20260509202005 98 93 1.0 2.0 0.00 0.00 0.00 41 1012.0
20260509201500 97 216 6.0 8.0 0.00 0.00 0.00 40 1011.9
20260509200957 98 195 5.0 6.0 0.00 0.00 0.00 40 1012.1
20260509200452 98 282 3.0 6.0 0.00 0.00 0.00 39 1012.1
20260509195949 98 352 3.0 5.0 0.00 0.00 0.00 39 1012.2
20260509195444 98 189 8.0 10.0 0.00 0.00 0.00 39 1012.1
20260509194944 99 310 3.0 5.0 0.00 0.00 0.00 38 1012.3
20260509194440 99 173 7.0 10.0 0.00 0.00 0.00 37 1012.5
20260509193937 98 206 3.0 3.0 0.00 0.00 0.00 39 1012.5
20260509193436 99 182 4.0 5.0 0.00 0.00 0.00 37 1012.5
20260509192933 98 223 5.0 7.0 0.00 0.00 0.00 38 1012.6
20260509192430 98 289 1.0 2.0 0.00 0.00 0.00 39 1012.7
20260509191925 99 187 3.0 6.0 0.00 0.00 0.00 37 1012.8
20260509191420 99 204 3.0 5.0 0.00 0.00 0.00 36 1013.0
20260509190916 98 198 6.0 9.0 0.00 0.00 0.00 39 1012.9
20260509190414 99 238 2.0 3.0 0.00 0.00 0.00 38 1013.1
20260509185912 99 216 9.0 11.0 0.00 0.00 0.00 39 1013.1
20260509185409 98 279 4.0 5.0 0.00 0.00 0.00 41 1013.0
20260509184905 99 318 4.0 6.0 0.00 0.00 0.00 39 1013.1
20260509184402 98 119 7.0 10.0 0.00 0.00 0.00 41 1013.2
20260509183859 98 211 1.0 2.0 0.00 0.00 0.00 41 1013.2
20260509183354 98 177 5.0 6.0 0.00 0.00 0.00 41 1013.2
20260509182850 98 254 2.0 3.0 0.00 0.00 0.00 42 1013.1
20260509182347 98 175 5.0 8.0 0.00 0.00 0.00 42 1013.0
20260509181844 98 262 3.0 3.0 0.00 0.00 0.00 43 1013.2
20260509181342 98 287 4.0 5.0 0.00 0.00 0.00 42 1013.1
20260509180839 97 215 9.0 13.0 0.00 0.00 0.00 43 1013.1
20260509180335 98 200 7.0 8.0 0.00 0.00 0.00 43 1013.3
20260509175832 97 109 3.0 5.0 0.00 0.00 0.00 42 1013.3
20260509175328 97 189 3.0 3.0 0.00 0.00 0.00 44 1013.4
20260509174824 97 236 6.0 10.0 0.00 0.00 0.00 46 1013.5
20260509174320 98 263 6.0 8.0 0.00 0.00 0.00 44 1013.8
20260509173816 98 256 5.0 8.0 0.00 0.00 0.00 45 1013.5
20260509173311 96 213 4.0 5.0 0.00 0.00 0.00 46 1013.7
20260509172808 96 182 3.0 5.0 0.00 0.00 0.00 45 1013.5
20260509172306 97 217 3.0 5.0 0.00 0.00 0.00 46 1013.7
20260509171800 97 217 5.0 9.0 0.00 0.00 0.00 46 1013.7
20260509171256 97 249 1.0 3.0 0.00 0.00 0.00 48 1013.7
20260509170753 95 164 4.0 6.0 0.00 0.00 0.00 49 1013.7
20260509170249 96 175 5.0 8.0 0.00 0.00 0.00 49 1013.7
20260509165748 96 219 3.0 7.0 0.00 0.00 0.00 48 1013.7
20260509165243 95 90 2.0 3.0 0.00 0.00 0.00 51 1013.8
20260509164739 95 230 6.0 8.0 0.00 0.00 0.00 50 1014.0
20260509164235 95 198 4.0 7.0 0.00 0.00 0.00 50 1014.0
20260509163733 94 324 6.0 8.0 0.00 0.00 0.00 50 1014.1
20260509163229 96 257 5.0 6.0 0.00 0.00 0.00 49 1014.2
20260509162727 96 211 6.0 8.0 0.00 0.00 0.00 51 1014.1
20260509162222 95 297 4.0 6.0 0.00 0.00 0.00 52 1013.9
20260509161717 94 220 5.0 7.0 0.00 0.00 0.00 52 1014.3
20260509161214 95 182 6.0 8.0 0.00 0.00 0.00 54 1014.2
20260509160709 94 127 8.0 11.0 0.00 0.00 0.00 53 1014.2
20260509160206 94 212 5.0 8.0 0.00 0.00 0.00 53 1014.3
20260509155701 95 231 6.0 10.0 0.00 0.00 0.00 53 1014.4
20260509155158 95 214 5.0 6.0 0.00 0.00 0.00 52 1014.4
20260509154654 94 172 5.0 6.0 0.00 0.00 0.00 52 1014.5
20260509154151 94 237 6.0 7.0 0.00 0.00 0.00 55 1014.9
20260509153648 94 234 4.0 6.0 0.00 0.00 0.00 56 1014.8
20260509153144 93 246 3.0 3.0 0.00 0.00 0.00 57 1014.7
20260509152640 92 325 1.0 2.0 0.00 0.00 0.00 57 1014.9
20260509152138 93 346 0.0 0.0 0.00 0.00 0.00 59 1015.2
20260509151634 92 138 1.0 2.0 0.00 0.00 0.00 60 1015.0
20260509151131 92 303 2.0 2.0 0.00 0.00 0.00 61 1015.1
20260509150629 91 220 6.0 8.0 0.00 0.00 0.00 60 1015.0
20260509150127 91 210 4.0 5.0 0.00 0.00 0.00 60 1015.1
20260509145623 92 225 5.0 8.0 0.00 0.00 0.00 57 1014.8
20260509145118 91 243 5.0 9.0 0.00 0.00 0.00 60 1015.2
20260509144615 91 277 4.0 6.0 0.00 0.00 0.00 60 1015.0
20260509144112 91 297 4.0 5.0 0.00 0.00 0.00 66 1015.1
20260509143609 90 232 4.0 5.0 0.00 0.00 0.00 72 1014.9
20260509143107 89 220 8.0 10.0 0.00 0.00 0.00 70 1014.9
20260509142602 89 158 4.0 7.0 0.00 0.00 0.00 74 1014.8
20260509142058 88 174 6.0 7.0 0.00 0.00 0.00 74 1014.8
20260509141555 88 212 4.0 5.0 0.00 0.00 0.00 74 1014.9
20260509141051 87 227 2.0 2.0 0.00 0.00 0.00 76 1014.8
20260509140548 87 251 3.0 5.0 0.00 0.00 0.00 79 1014.8
20260509140046 87 166 7.0 9.0 0.00 0.00 0.00 79 1014.8
20260509135543 87 197 4.0 5.0 0.00 0.00 0.00 79 1015.0
20260509135041 86 293 1.0 1.0 0.00 0.00 0.00 80 1015.1
20260509134537 86 116 5.0 7.0 0.00 0.00 0.00 82 1014.8
20260509134035 86 278 3.0 6.0 0.00 0.00 0.00 82 1014.9
20260509133532 86 252 5.0 8.0 0.00 0.00 0.00 81 1015.1
20260509133030 85 189 3.0 5.0 0.00 0.00 0.00 83 1015.2
20260509132528 85 208 3.0 3.0 0.00 0.00 0.00 84 1015.1
20260509132026 85 248 5.0 7.0 0.00 0.00 0.00 83 1015.0
20260509131522 85 295 3.0 5.0 0.00 0.00 0.00 82 1015.0
20260509131019 85 248 2.0 3.0 0.00 0.00 0.00 82 1014.9
20260509130514 83 311 0.0 0.0 0.00 0.00 0.00 84 1014.9
20260509130011 83 251 3.0 3.0 0.00 0.00 0.00 84 1014.8
20260509125508 83 292 0.0 0.0 0.00 0.00 0.00 85 1015.0
20260509125004 83 199 2.0 2.0 0.00 0.00 0.00 85 1014.7
20260509124501 82 306 0.0 0.0 0.00 0.00 0.00 88 1014.6
20260509123958 80 210 3.0 3.0 0.00 0.00 0.00 92 1014.7